Tracking 19969 objects as of 12-Nov-2019
Live streaming from Space Station
objects crossing your sky now
Track the group of recently launched Starlink satellites

DMSP 5D-2 F11 DEB

Track DMSP 5D-2 F11 DEB now!
10-day predictions


NORAD ID: 28312
Int'l Code: 1991-082Z
Perigee: 821.6 km
Apogee: 836.9 km
Inclination: 98.8 °
Period: 101.3 minutes
Semi major axis: 7200 km
RCS: 0.0099 m2 (small)
Launch date: November 28, 1991
Source: United States (US)
Launch site: AIR FORCE WESTERN TEST RANGE (AFWTR)

Note: This is SATELLITE DEBRIS
aabbcc
Your satellite tracking list
Your tracking list is empty




NASA's NSSDC Master Catalog

Two Line Element Set (TLE):
1 28312U 91082Z   19315.29816339 +.00000223 +00000-0 +12344-3 0  9990
2 28312 098.8419 332.9877 0010608 235.6914 124.3259 14.20961514804563
Source of the keplerian elements: AFSPC